Time,TemperatureF,DewpointF,PressureIn,WindDirection,WindDirectionDegrees,WindSpeedMPH,WindSpeedGustMPH,Humidity,HourlyPrecipIn,Conditions,Clouds,dailyrainin,SoftwareType,DateUTC
2013-03-30 00:02:00,38.4,23.9,30.20,NNE,15,1.0,3.0,55,-99.99,,,0.00,1-wire,2013-03-30 05:02:00,
2013-03-30 00:08:00,38.8,23.4,30.20,NNE,18,0.0,0.0,54,-99.99,,,0.00,1-wire,2013-03-30 05:08:00,
2013-03-30 00:13:00,38.8,23.6,30.20,NNE,18,0.0,3.0,54,-99.99,,,0.00,1-wire,2013-03-30 05:13:00,
2013-03-30 00:18:00,39.0,23.7,30.20,NNE,18,0.0,0.0,54,-99.99,,,0.00,1-wire,2013-03-30 05:18:00,
2013-03-30 00:24:00,38.8,23.8,30.20,SSE,149,0.0,0.0,55,-99.99,,,0.00,1-wire,2013-03-30 05:24:00,
2013-03-30 00:29:00,38.4,24.3,30.20,SSE,149,0.0,0.0,57,-99.99,,,0.00,1-wire,2013-03-30 05:29:00,
2013-03-30 00:35:00,38.4,24.5,30.20,SSE,149,0.0,3.0,57,-99.99,,,0.00,1-wire,2013-03-30 05:35:00,
2013-03-30 00:40:00,37.7,24.4,30.20,South,174,0.0,0.0,58,-99.99,,,0.00,1-wire,2013-03-30 05:40:00,
2013-03-30 00:45:00,37.8,24.0,30.20,South,174,1.0,3.0,57,-99.99,,,0.00,1-wire,2013-03-30 05:45:00,
2013-03-30 00:50:00,37.6,24.3,30.20,South,174,1.0,3.0,58,-99.99,,,0.00,1-wire,2013-03-30 05:50:00,
2013-03-30 00:55:00,37.8,24.6,30.20,South,191,1.0,3.0,59,-99.99,,,0.00,1-wire,2013-03-30 05:55:00,
2013-03-30 01:00:00,37.8,24.2,30.20,South,191,1.0,3.0,58,-99.99,,,0.00,1-wire,2013-03-30 06:00:00,
2013-03-30 01:05:00,38.3,24.4,30.20,South,191,1.0,6.0,57,-99.99,,,0.00,1-wire,2013-03-30 06:05:00,
2013-03-30 01:10:00,38.3,24.6,30.20,South,186,0.0,3.0,57,-99.99,,,0.00,1-wire,2013-03-30 06:10:00,
2013-03-30 01:15:00,38.3,25.2,30.20,South,186,0.0,3.0,59,-99.99,,,0.00,1-wire,2013-03-30 06:15:00,
2013-03-30 01:20:00,38.1,25.0,30.20,South,186,0.0,0.0,59,-99.99,,,0.00,1-wire,2013-03-30 06:20:00,
2013-03-30 01:25:00,38.0,25.1,30.20,South,185,1.0,3.0,59,-99.99,,,0.00,1-wire,2013-03-30 06:25:00,
2013-03-30 01:30:00,38.1,25.6,30.20,South,185,0.0,3.0,60,-99.99,,,0.00,1-wire,2013-03-30 06:30:00,
2013-03-30 01:35:00,38.1,25.6,30.19,South,185,0.0,0.0,60,-99.99,,,0.00,1-wire,2013-03-30 06:35:00,
2013-03-30 01:40:00,38.1,25.8,30.19,South,180,0.0,0.0,61,-99.99,,,0.00,1-wire,2013-03-30 06:40:00,
2013-03-30 01:45:00,37.7,25.6,30.19,South,180,1.0,3.0,61,-99.99,,,0.00,1-wire,2013-03-30 06:45:00,
2013-03-30 01:50:00,37.5,25.9,30.19,South,180,0.0,3.0,62,-99.99,,,0.00,1-wire,2013-03-30 06:50:00,
2013-03-30 01:55:00,37.4,25.8,30.19,South,177,0.0,0.0,62,-99.99,,,0.00,1-wire,2013-03-30 06:55:00,
2013-03-30 02:00:00,37.3,25.6,30.18,South,177,0.0,3.0,62,-99.99,,,0.00,1-wire,2013-03-30 07:00:00,
2013-03-30 02:05:00,37.2,25.6,30.18,South,177,1.0,3.0,62,-99.99,,,0.00,1-wire,2013-03-30 07:05:00,
2013-03-30 02:10:00,37.4,25.8,30.18,South,177,0.0,0.0,63,-99.99,,,0.00,1-wire,2013-03-30 07:10:00,
2013-03-30 02:16:00,37.1,25.7,30.18,South,177,0.0,3.0,63,-99.99,,,0.00,1-wire,2013-03-30 07:16:00,
2013-03-30 02:22:00,37.3,26.0,30.18,South,185,1.0,3.0,63,-99.99,,,0.00,1-wire,2013-03-30 07:22:00,
2013-03-30 02:27:00,37.0,25.6,30.18,South,185,1.0,3.0,63,-99.99,,,0.00,1-wire,2013-03-30 07:27:00,
2013-03-30 02:33:00,36.8,25.5,30.18,South,185,0.0,0.0,63,-99.99,,,0.00,1-wire,2013-03-30 07:33:00,
2013-03-30 02:38:00,36.7,25.3,30.18,South,185,1.0,6.0,63,-99.99,,,0.00,1-wire,2013-03-30 07:38:00,
2013-03-30 02:44:00,36.8,25.3,30.18,South,185,0.0,0.0,63,-99.99,,,0.00,1-wire,2013-03-30 07:44:00,
2013-03-30 02:49:00,36.9,25.2,30.17,South,185,1.0,3.0,62,-99.99,,,0.00,1-wire,2013-03-30 07:49:00,
2013-03-30 02:54:00,36.6,25.3,30.16,South,178,3.0,6.0,63,-99.99,,,0.00,1-wire,2013-03-30 07:54:00,
2013-03-30 03:00:00,36.5,25.3,30.16,South,178,0.0,0.0,63,-99.99,,,0.00,1-wire,2013-03-30 08:00:00,
2013-03-30 03:05:00,36.4,25.3,30.16,South,178,1.0,3.0,64,-99.99,,,0.00,1-wire,2013-03-30 08:05:00,
2013-03-30 03:12:00,36.4,25.1,30.16,SSE,161,2.0,3.0,63,-99.99,,,0.00,1-wire,2013-03-30 08:12:00,
2013-03-30 03:18:00,36.1,25.1,30.16,SSE,161,0.0,3.0,64,-99.99,,,0.00,1-wire,2013-03-30 08:18:00,
2013-03-30 03:23:00,36.1,25.1,30.15,SSE,167,0.0,3.0,64,-99.99,,,0.00,1-wire,2013-03-30 08:23:00,
2013-03-30 03:29:00,36.0,25.1,30.15,SSE,167,1.0,3.0,64,-99.99,,,0.00,1-wire,2013-03-30 08:29:00,
2013-03-30 03:34:00,35.9,25.3,30.15,SSE,167,0.0,0.0,65,-99.99,,,0.00,1-wire,2013-03-30 08:34:00,
2013-03-30 03:39:00,35.7,25.2,30.15,SSE,168,0.0,3.0,65,-99.99,,,0.00,1-wire,2013-03-30 08:39:00,
2013-03-30 03:44:00,35.5,24.9,30.15,SSE,168,0.0,0.0,65,-99.99,,,0.00,1-wire,2013-03-30 08:44:00,
2013-03-30 03:49:00,35.5,24.7,30.14,SSE,168,0.0,0.0,64,-99.99,,,0.00,1-wire,2013-03-30 08:49:00,
2013-03-30 03:54:00,35.5,24.9,30.14,South,173,1.0,3.0,65,-99.99,,,0.00,1-wire,2013-03-30 08:54:00,
2013-03-30 03:59:00,35.8,24.7,30.14,South,173,1.0,3.0,64,-99.99,,,0.00,1-wire,2013-03-30 08:59:00,
2013-03-30 04:04:00,35.3,24.8,30.14,South,173,0.0,0.0,65,-99.99,,,0.00,1-wire,2013-03-30 09:04:00,
2013-03-30 04:09:00,35.6,24.7,30.14,South,185,0.0,0.0,64,-99.99,,,0.00,1-wire,2013-03-30 09:09:00,
2013-03-30 04:14:00,35.7,24.5,30.14,South,185,0.0,0.0,63,-99.99,,,0.00,1-wire,2013-03-30 09:14:00,
2013-03-30 04:19:00,35.8,24.4,30.14,South,185,0.0,0.0,63,-99.99,,,0.00,1-wire,2013-03-30 09:19:00,
2013-03-30 04:25:00,35.8,24.3,30.15,South,188,0.0,3.0,63,-99.99,,,0.00,1-wire,2013-03-30 09:25:00,
2013-03-30 04:30:00,35.7,24.1,30.14,South,188,0.0,3.0,62,-99.99,,,0.00,1-wire,2013-03-30 09:30:00,
2013-03-30 04:34:00,35.7,23.9,30.14,South,188,1.0,3.0,62,-99.99,,,0.00,1-wire,2013-03-30 09:34:00,
2013-03-30 04:39:00,36.0,24.0,30.15,South,189,1.0,3.0,61,-99.99,,,0.00,1-wire,2013-03-30 09:39:00,
2013-03-30 04:44:00,36.2,23.4,30.15,South,189,0.0,3.0,59,-99.99,,,0.00,1-wire,2013-03-30 09:44:00,
2013-03-30 04:50:00,36.4,23.4,30.14,South,189,2.0,3.0,59,-99.99,,,0.00,1-wire,2013-03-30 09:50:00,
2013-03-30 04:55:00,36.4,23.5,30.15,South,187,2.0,6.0,59,-99.99,,,0.00,1-wire,2013-03-30 09:55:00,
2013-03-30 05:01:00,36.5,22.9,30.14,South,187,1.0,3.0,57,-99.99,,,0.00,1-wire,2013-03-30 10:01:00,
2013-03-30 05:06:00,36.6,22.9,30.14,South,188,1.0,3.0,57,-99.99,,,0.00,1-wire,2013-03-30 10:06:00,
2013-03-30 05:11:00,36.4,23.0,30.14,South,188,1.0,8.0,58,-99.99,,,0.00,1-wire,2013-03-30 10:11:00,
2013-03-30 05:17:00,36.1,22.9,30.14,South,188,3.0,9.0,58,-99.99,,,0.00,1-wire,2013-03-30 10:17:00,
2013-03-30 05:22:00,36.0,23.1,30.13,South,190,1.0,3.0,59,-99.99,,,0.00,1-wire,2013-03-30 10:22:00,
2013-03-30 05:27:00,35.8,23.0,30.14,South,190,1.0,3.0,59,-99.99,,,0.00,1-wire,2013-03-30 10:27:00,
2013-03-30 05:32:00,35.6,23.2,30.12,South,190,2.0,3.0,60,-99.99,,,0.00,1-wire,2013-03-30 10:32:00,
2013-03-30 05:38:00,35.7,23.2,30.12,South,188,2.0,6.0,60,-99.99,,,0.00,1-wire,2013-03-30 10:38:00,
2013-03-30 05:43:00,35.7,23.2,30.12,South,188,0.0,3.0,60,-99.99,,,0.00,1-wire,2013-03-30 10:43:00,
2013-03-30 05:48:00,35.6,23.1,30.12,South,188,0.0,3.0,60,-99.99,,,0.00,1-wire,2013-03-30 10:48:00,
2013-03-30 05:53:00,35.8,23.3,30.12,South,190,1.0,3.0,60,-99.99,,,0.00,1-wire,2013-03-30 10:53:00,
2013-03-30 05:58:00,35.9,23.4,30.12,South,190,1.0,3.0,60,-99.99,,,0.00,1-wire,2013-03-30 10:58:00,
2013-03-30 06:03:00,35.8,23.2,30.11,South,190,1.0,3.0,60,-99.99,,,0.00,1-wire,2013-03-30 11:03:00,
2013-03-30 06:08:00,35.7,23.3,30.11,South,184,0.0,3.0,60,-99.99,,,0.00,1-wire,2013-03-30 11:08:00,
2013-03-30 06:14:00,35.8,23.5,30.11,South,184,2.0,3.0,60,-99.99,,,0.00,1-wire,2013-03-30 11:14:00,
2013-03-30 06:19:00,35.9,23.4,30.11,South,184,1.0,3.0,60,-99.99,,,0.00,1-wire,2013-03-30 11:19:00,
2013-03-30 06:24:00,36.0,23.4,30.10,South,179,0.0,0.0,60,-99.99,,,0.00,1-wire,2013-03-30 11:24:00,
2013-03-30 06:29:00,36.3,22.9,30.10,South,179,3.0,9.0,58,-99.99,,,0.00,1-wire,2013-03-30 11:29:00,
2013-03-30 06:35:00,36.5,22.7,30.10,South,179,2.0,6.0,57,-99.99,,,0.00,1-wire,2013-03-30 11:35:00,
2013-03-30 06:40:00,36.7,22.8,30.10,South,174,1.0,3.0,57,-99.99,,,0.00,1-wire,2013-03-30 11:40:00,
2013-03-30 06:46:00,36.9,22.9,30.10,South,174,2.0,6.0,56,-99.99,,,0.00,1-wire,2013-03-30 11:46:00,
2013-03-30 06:51:00,37.1,22.8,30.10,South,175,3.0,6.0,56,-99.99,,,0.00,1-wire,2013-03-30 11:51:00,
2013-03-30 06:57:00,37.1,23.0,30.09,South,175,1.0,3.0,56,-99.99,,,0.00,1-wire,2013-03-30 11:57:00,
2013-03-30 07:03:00,37.3,22.8,30.09,South,175,2.0,6.0,55,-99.99,,,0.00,1-wire,2013-03-30 12:03:00,
2013-03-30 07:08:00,37.5,23.1,30.08,South,179,2.0,6.0,56,-99.99,,,0.00,1-wire,2013-03-30 12:08:00,
2013-03-30 07:14:00,37.8,23.0,30.08,South,179,2.0,6.0,55,-99.99,,,0.00,1-wire,2013-03-30 12:14:00,
2013-03-30 07:19:00,38.0,23.1,30.09,South,179,1.0,6.0,55,-99.99,,,0.00,1-wire,2013-03-30 12:19:00,
2013-03-30 07:24:00,38.2,23.2,30.10,South,176,1.0,3.0,54,-99.99,,,0.00,1-wire,2013-03-30 12:24:00,
2013-03-30 07:30:00,38.5,23.4,30.10,South,176,1.0,3.0,54,-99.99,,,0.00,1-wire,2013-03-30 12:30:00,
2013-03-30 07:35:00,38.4,23.1,30.10,South,176,2.0,6.0,54,-99.99,,,0.00,1-wire,2013-03-30 12:35:00,
2013-03-30 07:42:00,38.8,23.2,30.09,South,172,1.0,5.0,53,-99.99,,,0.00,1-wire,2013-03-30 12:42:00,
2013-03-30 07:47:00,39.0,23.2,30.10,South,172,1.0,3.0,53,-99.99,,,0.00,1-wire,2013-03-30 12:47:00,
2013-03-30 07:53:00,39.3,23.4,30.09,SSE,168,1.0,11.0,53,-99.99,,,0.00,1-wire,2013-03-30 12:53:00,
2013-03-30 07:59:00,39.5,23.8,30.09,SSE,168,2.0,6.0,53,-99.99,,,0.00,1-wire,2013-03-30 12:59:00,
2013-03-30 08:04:00,39.6,23.8,30.08,SSE,168,1.0,6.0,53,-99.99,,,0.00,1-wire,2013-03-30 13:04:00,
2013-03-30 08:09:00,39.6,23.6,30.08,South,176,1.0,3.0,53,-99.99,,,0.00,1-wire,2013-03-30 13:09:00,
2013-03-30 08:14:00,39.8,23.8,30.08,South,176,2.0,9.0,52,-99.99,,,0.00,1-wire,2013-03-30 13:14:00,
2013-03-30 08:19:00,40.1,23.9,30.08,South,176,2.0,6.0,52,-99.99,,,0.00,1-wire,2013-03-30 13:19:00,
2013-03-30 08:24:00,40.5,24.1,30.08,South,170,0.0,3.0,52,-99.99,,,0.00,1-wire,2013-03-30 13:24:00,
2013-03-30 08:29:00,40.3,24.0,30.07,South,170,2.0,6.0,52,-99.99,,,0.00,1-wire,2013-03-30 13:29:00,
2013-03-30 08:34:00,40.9,24.1,30.07,South,170,1.0,3.0,51,-99.99,,,0.00,1-wire,2013-03-30 13:34:00,
2013-03-30 08:39:00,41.3,24.5,30.07,South,174,2.0,6.0,51,-99.99,,,0.00,1-wire,2013-03-30 13:39:00,
2013-03-30 08:44:00,41.5,24.7,30.07,South,174,1.0,3.0,51,-99.99,,,0.00,1-wire,2013-03-30 13:44:00,
2013-03-30 08:49:00,41.7,24.9,30.07,South,174,0.0,3.0,51,-99.99,,,0.00,1-wire,2013-03-30 13:49:00,
2013-03-30 08:54:00,41.3,24.6,30.07,South,175,3.0,8.0,51,-99.99,,,0.00,1-wire,2013-03-30 13:54:00,
2013-03-30 08:59:00,41.3,24.9,30.07,South,175,4.0,9.0,52,-99.99,,,0.00,1-wire,2013-03-30 13:59:00,
2013-03-30 09:04:00,41.3,24.9,30.07,South,175,3.0,6.0,52,-99.99,,,0.00,1-wire,2013-03-30 14:04:00,
2013-03-30 09:09:00,41.3,25.4,30.07,South,184,2.0,6.0,53,-99.99,,,0.00,1-wire,2013-03-30 14:09:00,
2013-03-30 09:14:00,41.9,26.0,30.06,South,184,2.0,6.0,53,-99.99,,,0.00,1-wire,2013-03-30 14:14:00,
2013-03-30 09:19:00,42.2,25.5,30.07,South,184,2.0,6.0,51,-99.99,,,0.00,1-wire,2013-03-30 14:19:00,
2013-03-30 09:24:00,42.5,26.0,30.05,South,187,3.0,6.0,52,-99.99,,,0.00,1-wire,2013-03-30 14:24:00,
2013-03-30 09:29:00,42.5,25.7,30.05,South,187,4.0,14.0,51,-99.99,,,0.00,1-wire,2013-03-30 14:29:00,
2013-03-30 09:34:00,43.2,26.5,30.05,South,187,1.0,3.0,51,-99.99,,,0.00,1-wire,2013-03-30 14:34:00,
2013-03-30 09:39:00,43.0,26.4,30.05,South,179,7.0,14.0,52,-99.99,,,0.00,1-wire,2013-03-30 14:39:00,
2013-03-30 09:45:00,43.0,26.8,30.05,South,179,2.0,6.0,53,-99.99,,,0.00,1-wire,2013-03-30 14:45:00,
2013-03-30 09:50:00,43.5,27.5,30.05,South,179,3.0,8.0,53,-99.99,,,0.00,1-wire,2013-03-30 14:50:00,
2013-03-30 09:56:00,43.6,27.2,30.05,SSE,163,3.0,6.0,52,-99.99,,,0.00,1-wire,2013-03-30 14:56:00,
2013-03-30 10:02:00,43.7,27.6,30.05,SSE,163,3.0,11.0,53,-99.99,,,0.00,1-wire,2013-03-30 15:02:00,
2013-03-30 10:08:00,43.4,28.0,30.04,South,181,4.0,9.0,54,-99.99,,,0.00,1-wire,2013-03-30 15:08:00,
2013-03-30 10:13:00,43.6,28.5,30.04,South,181,3.0,6.0,55,-99.99,,,0.00,1-wire,2013-03-30 15:13:00,
2013-03-30 10:19:00,43.3,28.4,30.04,South,181,3.0,13.0,55,-99.99,,,0.00,1-wire,2013-03-30 15:19:00,
2013-03-30 10:25:00,43.2,28.9,30.04,South,191,4.0,9.0,57,-99.99,,,0.00,1-wire,2013-03-30 15:25:00,
2013-03-30 10:30:00,43.1,29.1,30.03,South,191,3.0,6.0,57,-99.99,,,0.00,1-wire,2013-03-30 15:30:00,
2013-03-30 10:37:00,43.0,29.3,30.02,South,182,4.0,11.0,58,-99.99,,,0.00,1-wire,2013-03-30 15:37:00,
2013-03-30 10:42:00,43.1,29.6,30.02,South,182,4.0,6.0,59,-99.99,,,0.00,1-wire,2013-03-30 15:42:00,
2013-03-30 10:48:00,43.5,29.9,30.02,South,182,4.0,11.0,58,-99.99,,,0.00,1-wire,2013-03-30 15:48:00,
2013-03-30 10:53:00,43.8,30.4,30.02,South,186,5.0,9.0,59,-99.99,,,0.00,1-wire,2013-03-30 15:53:00,
2013-03-30 10:58:00,44.5,30.6,30.02,South,186,4.0,10.0,58,-99.99,,,0.00,1-wire,2013-03-30 15:58:00,
2013-03-30 11:03:00,45.2,31.1,30.01,South,186,4.0,10.0,58,-99.99,,,0.00,1-wire,2013-03-30 16:03:00,
2013-03-30 11:08:00,45.9,31.5,30.01,South,185,6.0,11.0,57,-99.99,,,0.00,1-wire,2013-03-30 16:08:00,
2013-03-30 11:13:00,46.3,31.9,30.01,South,185,4.0,10.0,57,-99.99,,,0.00,1-wire,2013-03-30 16:13:00,
2013-03-30 11:18:00,45.9,31.8,30.01,South,185,7.0,14.0,58,-99.99,,,0.00,1-wire,2013-03-30 16:18:00,
2013-03-30 11:23:00,46.4,32.2,30.01,South,186,2.0,6.0,57,-99.99,,,0.00,1-wire,2013-03-30 16:23:00,
2013-03-30 11:28:00,46.3,32.4,30.01,South,186,2.0,8.0,58,-99.99,,,0.00,1-wire,2013-03-30 16:28:00,
2013-03-30 11:33:00,46.6,32.8,30.01,South,186,2.0,3.0,58,-99.99,,,0.00,1-wire,2013-03-30 16:33:00,
2013-03-30 11:38:00,46.6,32.9,30.01,SSW,194,4.0,13.0,59,-99.99,,,0.00,1-wire,2013-03-30 16:38:00,
2013-03-30 11:43:00,47.1,33.2,30.01,SSW,194,4.0,9.0,58,-99.99,,,0.00,1-wire,2013-03-30 16:43:00,
2013-03-30 11:48:00,47.3,33.2,30.01,SSW,194,6.0,10.0,58,-99.99,,,0.00,1-wire,2013-03-30 16:48:00,
2013-03-30 11:53:00,46.9,33.0,30.01,South,181,4.0,8.0,58,-99.99,,,0.00,1-wire,2013-03-30 16:53:00,
2013-03-30 11:58:00,48.0,33.7,30.01,South,181,3.0,6.0,57,-99.99,,,0.00,1-wire,2013-03-30 16:58:00,
2013-03-30 12:03:00,48.1,33.7,30.00,South,181,7.0,13.0,57,-99.99,,,0.00,1-wire,2013-03-30 17:03:00,
2013-03-30 12:08:00,47.9,33.9,30.00,South,185,6.0,13.0,58,-99.99,,,0.00,1-wire,2013-03-30 17:08:00,
2013-03-30 12:13:00,48.5,34.3,30.00,South,185,5.0,11.0,58,-99.99,,,0.00,1-wire,2013-03-30 17:13:00,
2013-03-30 12:19:00,49.2,34.5,29.99,South,185,1.0,6.0,57,-99.99,,,0.00,1-wire,2013-03-30 17:19:00,
2013-03-30 12:24:00,50.3,35.1,29.99,SSW,192,7.0,13.0,56,-99.99,,,0.00,1-wire,2013-03-30 17:24:00,
2013-03-30 12:29:00,50.1,35.0,29.99,SSW,192,7.0,14.0,56,-99.99,,,0.00,1-wire,2013-03-30 17:29:00,
2013-03-30 12:34:00,49.5,34.7,29.98,SSW,192,6.0,11.0,57,-99.99,,,0.00,1-wire,2013-03-30 17:34:00,
2013-03-30 12:39:00,49.6,35.1,29.99,South,187,4.0,11.0,57,-99.99,,,0.00,1-wire,2013-03-30 17:39:00,
2013-03-30 12:44:00,50.4,35.5,29.97,South,187,9.0,16.0,56,-99.99,,,0.00,1-wire,2013-03-30 17:44:00,
2013-03-30 12:49:00,51.0,35.7,29.97,South,187,9.0,16.0,56,-99.99,,,0.00,1-wire,2013-03-30 17:49:00,
2013-03-30 12:54:00,49.7,35.2,29.97,SSW,197,7.0,17.0,57,-99.99,,,0.00,1-wire,2013-03-30 17:54:00,
2013-03-30 12:59:00,50.3,35.9,29.97,SSW,197,5.0,9.0,57,-99.99,,,0.00,1-wire,2013-03-30 17:59:00,
2013-03-30 13:04:00,50.6,36.0,29.97,SSW,197,2.0,8.0,57,-99.99,,,0.00,1-wire,2013-03-30 18:04:00,
2013-03-30 13:09:00,50.0,35.6,29.96,SSW,194,3.0,8.0,57,-99.99,,,0.00,1-wire,2013-03-30 18:09:00,
2013-03-30 13:15:00,49.5,35.2,29.96,SSW,194,6.0,11.0,58,-99.99,,,0.00,1-wire,2013-03-30 18:15:00,
2013-03-30 13:20:00,50.2,35.8,29.95,SSW,194,6.0,11.0,57,-99.99,,,0.00,1-wire,2013-03-30 18:20:00,
2013-03-30 13:25:00,50.6,35.9,29.95,SSW,192,3.0,8.0,57,-99.99,,,0.00,1-wire,2013-03-30 18:25:00,
2013-03-30 13:30:00,51.0,36.0,29.95,SSW,192,8.0,14.0,56,-99.99,,,0.00,1-wire,2013-03-30 18:30:00,
2013-03-30 13:35:00,50.6,35.4,29.94,SSW,192,6.0,13.0,56,-99.99,,,0.00,1-wire,2013-03-30 18:35:00,
2013-03-30 13:40:00,50.8,35.6,29.94,SSW,199,4.0,8.0,56,-99.99,,,0.00,1-wire,2013-03-30 18:40:00,
2013-03-30 13:45:00,51.4,35.7,29.95,SSW,199,6.0,14.0,55,-99.99,,,0.00,1-wire,2013-03-30 18:45:00,
2013-03-30 13:52:00,50.8,35.5,29.94,SSW,196,7.0,13.0,56,-99.99,,,0.00,1-wire,2013-03-30 18:52:00,
2013-03-30 13:57:00,50.8,35.8,29.94,SSW,196,5.0,13.0,56,-99.99,,,0.00,1-wire,2013-03-30 18:57:00,
2013-03-30 14:03:00,51.0,35.8,29.94,SSW,196,10.0,16.0,56,-99.99,,,0.00,1-wire,2013-03-30 19:03:00,
2013-03-30 14:08:00,51.2,36.1,29.94,SSW,193,6.0,14.0,56,-99.99,,,0.00,1-wire,2013-03-30 19:08:00,
2013-03-30 14:13:00,51.4,36.3,29.94,SSW,193,4.0,11.0,56,-99.99,,,0.00,1-wire,2013-03-30 19:13:00,
2013-03-30 14:18:00,51.9,36.5,29.93,SSW,193,4.0,11.0,55,-99.99,,,0.00,1-wire,2013-03-30 19:18:00,
2013-03-30 14:24:00,52.5,36.6,29.93,SSW,196,5.0,10.0,55,-99.99,,,0.00,1-wire,2013-03-30 19:24:00,
2013-03-30 14:29:00,53.3,36.7,29.93,SSW,196,8.0,14.0,53,-99.99,,,0.00,1-wire,2013-03-30 19:29:00,
2013-03-30 14:34:00,51.8,36.0,29.93,SSW,196,5.0,10.0,55,-99.99,,,0.00,1-wire,2013-03-30 19:34:00,
2013-03-30 14:39:00,51.9,36.3,29.92,SSW,197,5.0,11.0,55,-99.99,,,0.00,1-wire,2013-03-30 19:39:00,
2013-03-30 14:44:00,52.6,36.7,29.92,SSW,197,4.0,8.0,55,-99.99,,,0.00,1-wire,2013-03-30 19:44:00,
2013-03-30 14:49:00,52.6,36.9,29.92,SSW,197,4.0,9.0,55,-99.99,,,0.00,1-wire,2013-03-30 19:49:00,
2013-03-30 14:54:00,52.2,36.8,29.92,SSW,199,4.0,11.0,56,-99.99,,,0.00,1-wire,2013-03-30 19:54:00,
2013-03-30 14:59:00,51.7,36.7,29.92,SSW,199,4.0,11.0,56,-99.99,,,0.00,1-wire,2013-03-30 19:59:00,
2013-03-30 15:04:00,51.6,36.8,29.91,SSW,199,5.0,9.0,57,-99.99,,,0.00,1-wire,2013-03-30 20:04:00,
2013-03-30 15:09:00,51.4,36.9,29.91,SW,215,3.0,8.0,57,-99.99,,,0.00,1-wire,2013-03-30 20:09:00,
2013-03-30 15:14:00,51.5,36.8,29.90,SW,215,4.0,9.0,57,-99.99,,,0.00,1-wire,2013-03-30 20:14:00,
2013-03-30 15:19:00,51.5,36.8,29.90,SW,215,5.0,9.0,57,-99.99,,,0.00,1-wire,2013-03-30 20:19:00,
2013-03-30 15:24:00,51.5,36.9,29.90,SW,217,3.0,10.0,57,-99.99,,,0.00,1-wire,2013-03-30 20:24:00,
2013-03-30 15:29:00,51.7,36.8,29.90,SW,217,3.0,6.0,57,-99.99,,,0.00,1-wire,2013-03-30 20:29:00,
2013-03-30 15:35:00,51.7,37.0,29.90,SW,217,2.0,6.0,57,-99.99,,,0.00,1-wire,2013-03-30 20:35:00,
2013-03-30 15:40:00,51.6,37.0,29.90,SW,218,4.0,9.0,57,-99.99,,,0.00,1-wire,2013-03-30 20:40:00,
2013-03-30 15:45:00,52.0,37.3,29.90,SW,218,5.0,11.0,57,-99.99,,,0.00,1-wire,2013-03-30 20:45:00,
2013-03-30 15:50:00,51.8,37.2,29.90,SW,218,5.0,9.0,57,-99.99,,,0.00,1-wire,2013-03-30 20:50:00,
2013-03-30 15:55:00,51.9,37.4,29.90,SW,216,1.0,3.0,58,-99.99,,,0.00,1-wire,2013-03-30 20:55:00,
2013-03-30 16:00:00,52.2,37.6,29.90,SW,216,1.0,3.0,57,-99.99,,,0.00,1-wire,2013-03-30 21:00:00,
2013-03-30 16:05:00,52.1,37.3,29.90,SW,216,7.0,16.0,57,-99.99,,,0.00,1-wire,2013-03-30 21:05:00,
2013-03-30 16:10:00,51.9,36.7,29.90,SSW,209,6.0,11.0,56,-99.99,,,0.00,1-wire,2013-03-30 21:10:00,
2013-03-30 16:15:00,51.5,36.5,29.89,SSW,209,4.0,8.0,56,-99.99,,,0.00,1-wire,2013-03-30 21:15:00,
2013-03-30 16:20:00,51.5,36.6,29.88,SSW,209,2.0,6.0,56,-99.99,,,0.00,1-wire,2013-03-30 21:20:00,
2013-03-30 16:25:00,51.7,36.8,29.88,SSW,203,4.0,8.0,57,-99.99,,,0.00,1-wire,2013-03-30 21:25:00,
2013-03-30 16:30:00,51.3,36.5,29.88,SSW,203,5.0,11.0,57,-99.99,,,0.00,1-wire,2013-03-30 21:30:00,
2013-03-30 16:35:00,51.2,36.5,29.88,SSW,203,3.0,8.0,57,-99.99,,,0.00,1-wire,2013-03-30 21:35:00,
2013-03-30 16:40:00,51.3,36.8,29.88,SSW,208,3.0,6.0,57,-99.99,,,0.00,1-wire,2013-03-30 21:40:00,
2013-03-30 16:45:00,51.4,37.2,29.88,SSW,208,1.0,3.0,58,-99.99,,,0.00,1-wire,2013-03-30 21:45:00,
2013-03-30 16:50:00,51.1,37.4,29.87,SSW,208,3.0,6.0,59,-99.99,,,0.00,1-wire,2013-03-30 21:50:00,
2013-03-30 16:55:00,51.0,37.6,29.87,SSW,209,4.0,9.0,60,-99.99,,,0.00,1-wire,2013-03-30 21:55:00,
2013-03-30 17:00:00,51.1,37.8,29.87,SSW,209,2.0,8.0,60,-99.99,,,0.00,1-wire,2013-03-30 22:00:00,
2013-03-30 17:05:00,50.9,37.8,29.87,SSW,209,1.0,6.0,61,-99.99,,,0.00,1-wire,2013-03-30 22:05:00,
2013-03-30 17:10:00,50.7,37.9,29.86,SW,217,3.0,8.0,61,-99.99,,,0.00,1-wire,2013-03-30 22:10:00,
2013-03-30 17:15:00,50.6,38.0,29.86,SW,217,2.0,6.0,62,-99.99,,,0.00,1-wire,2013-03-30 22:15:00,
2013-03-30 17:21:00,50.3,38.1,29.86,SW,214,1.0,3.0,63,-99.99,,,0.00,1-wire,2013-03-30 22:21:00,
2013-03-30 17:26:00,50.3,38.2,29.86,SW,214,1.0,3.0,63,-99.99,,,0.00,1-wire,2013-03-30 22:26:00,
2013-03-30 17:32:00,50.1,38.4,29.86,SW,214,1.0,6.0,64,-99.99,,,0.00,1-wire,2013-03-30 22:32:00,
2013-03-30 17:37:00,50.0,38.3,29.86,SSW,213,1.0,3.0,64,-99.99,,,0.00,1-wire,2013-03-30 22:37:00,
2013-03-30 17:43:00,49.7,38.1,29.86,SSW,213,2.0,6.0,64,-99.99,,,0.00,1-wire,2013-03-30 22:43:00,
2013-03-30 17:48:00,49.5,38.1,29.86,SSW,213,1.0,3.0,65,-99.99,,,0.00,1-wire,2013-03-30 22:48:00,
2013-03-30 17:54:00,49.5,38.2,29.86,SSW,207,2.0,6.0,65,-99.99,,,0.00,1-wire,2013-03-30 22:54:00,
2013-03-30 17:59:00,49.6,38.3,29.86,SSW,207,0.0,3.0,65,-99.99,,,0.00,1-wire,2013-03-30 22:59:00,
2013-03-30 18:05:00,49.6,38.3,29.86,SSW,207,1.0,3.0,65,-99.99,,,0.00,1-wire,2013-03-30 23:05:00,
2013-03-30 18:10:00,49.4,38.4,29.86,SSW,203,2.0,6.0,66,-99.99,,,0.00,1-wire,2013-03-30 23:10:00,
2013-03-30 18:15:00,49.5,38.5,29.86,SSW,203,2.0,6.0,66,-99.99,,,0.00,1-wire,2013-03-30 23:15:00,
2013-03-30 18:20:00,49.3,38.4,29.86,SSW,203,0.0,3.0,66,-99.99,,,0.00,1-wire,2013-03-30 23:20:00,
2013-03-30 18:25:00,49.1,38.4,29.86,SSW,205,0.0,3.0,67,-99.99,,,0.00,1-wire,2013-03-30 23:25:00,
2013-03-30 18:30:00,49.3,38.7,29.85,SSW,205,3.0,6.0,67,-99.99,,,0.00,1-wire,2013-03-30 23:30:00,
2013-03-30 18:35:00,49.0,38.6,29.86,SSW,205,2.0,6.0,67,-99.99,,,0.00,1-wire,2013-03-30 23:35:00,
2013-03-30 18:40:00,48.9,38.6,29.86,SSW,205,1.0,3.0,67,-99.99,,,0.00,1-wire,2013-03-30 23:40:00,
2013-03-30 18:45:00,49.0,38.8,29.86,SSW,205,1.0,6.0,68,-99.99,,,0.00,1-wire,2013-03-30 23:45:00,
2013-03-30 18:50:00,49.2,38.9,29.86,SSW,205,2.0,6.0,68,-99.99,,,0.00,1-wire,2013-03-30 23:50:00,
2013-03-30 18:55:00,49.0,38.6,29.86,SSW,212,1.0,3.0,67,-99.99,,,0.00,1-wire,2013-03-30 23:55:00,
2013-03-30 19:00:00,49.0,38.6,29.85,SSW,212,3.0,6.0,67,-99.99,,,0.00,1-wire,2013-03-31 00:00:00,
2013-03-30 19:05:00,49.2,38.6,29.86,SSW,212,1.0,3.0,67,-99.99,,,0.00,1-wire,2013-03-31 00:05:00,
2013-03-30 19:10:00,49.2,38.5,29.85,SW,221,2.0,6.0,66,-99.99,,,0.00,1-wire,2013-03-31 00:10:00,
2013-03-30 19:15:00,49.1,38.2,29.86,SW,221,2.0,9.0,66,-99.99,,,0.00,1-wire,2013-03-31 00:15:00,
2013-03-30 19:20:00,48.9,38.0,29.85,SW,221,0.0,3.0,66,-99.99,,,0.00,1-wire,2013-03-31 00:20:00,
2013-03-30 19:25:00,48.7,37.8,29.85,SW,228,1.0,3.0,66,-99.99,,,0.00,1-wire,2013-03-31 00:25:00,
2013-03-30 19:30:00,48.7,37.9,29.85,SW,228,0.0,3.0,66,-99.99,,,0.00,1-wire,2013-03-31 00:30:00,
2013-03-30 19:35:00,48.6,38.8,29.85,SW,228,1.0,3.0,69,-99.99,,,0.00,1-wire,2013-03-31 00:35:00,
2013-03-30 19:40:00,48.1,38.7,29.85,SW,233,0.0,3.0,70,-99.99,,,0.00,1-wire,2013-03-31 00:40:00,
2013-03-30 19:45:00,47.9,38.6,29.85,SW,233,3.0,6.0,70,-99.99,,,0.00,1-wire,2013-03-31 00:45:00,
2013-03-30 19:50:00,48.0,39.4,29.85,SW,233,1.0,3.0,72,-99.99,,,0.00,1-wire,2013-03-31 00:50:00,
2013-03-30 19:55:00,47.4,39.7,29.85,SW,230,0.0,0.0,74,-99.99,,,0.00,1-wire,2013-03-31 00:55:00,
2013-03-30 20:00:00,47.0,39.9,29.85,SW,230,0.0,0.0,76,-99.99,,,0.00,1-wire,2013-03-31 01:00:00,
2013-03-30 20:05:00,46.8,39.8,29.85,SW,230,2.0,6.0,76,-99.99,,,0.00,1-wire,2013-03-31 01:05:00,
2013-03-30 20:10:00,46.8,39.8,29.85,SW,229,9.0,19.0,77,-99.99,,,0.01,1-wire,2013-03-31 01:10:00,
2013-03-30 20:15:00,46.6,39.8,29.85,SW,229,5.0,11.0,77,-99.99,,,0.01,1-wire,2013-03-31 01:15:00,
2013-03-30 20:20:00,46.4,39.9,29.85,SW,229,7.0,14.0,78,-99.99,,,0.01,1-wire,2013-03-31 01:20:00,
2013-03-30 20:25:00,46.5,40.4,29.85,WSW,237,4.0,10.0,79,-99.99,,,0.01,1-wire,2013-03-31 01:25:00,
2013-03-30 20:31:00,46.0,40.5,29.85,WSW,237,4.0,8.0,81,-99.99,,,0.02,1-wire,2013-03-31 01:31:00,
2013-03-30 20:36:00,45.6,40.8,29.85,WSW,237,4.0,6.0,83,-99.99,,,0.02,1-wire,2013-03-31 01:36:00,
2013-03-30 20:42:00,44.9,40.8,29.85,WSW,237,3.0,6.0,85,-99.99,,,0.03,1-wire,2013-03-31 01:42:00,
2013-03-30 20:47:00,44.9,41.0,29.84,WSW,237,3.0,6.0,86,-99.99,,,0.03,1-wire,2013-03-31 01:47:00,
2013-03-30 20:52:00,44.9,41.2,29.84,SW,231,2.0,5.0,87,-99.99,,,0.03,1-wire,2013-03-31 01:52:00,
2013-03-30 20:57:00,44.9,41.2,29.84,SW,231,3.0,6.0,87,-99.99,,,0.03,1-wire,2013-03-31 01:57:00,
2013-03-30 21:02:00,44.8,41.2,29.84,SW,231,3.0,6.0,87,-99.99,,,0.03,1-wire,2013-03-31 02:02:00,
2013-03-30 21:08:00,44.8,41.4,29.84,SW,229,2.0,6.0,88,-99.99,,,0.03,1-wire,2013-03-31 02:08:00,
2013-03-30 21:13:00,44.8,41.4,29.84,SW,229,1.0,3.0,88,-99.99,,,0.03,1-wire,2013-03-31 02:13:00,
2013-03-30 21:19:00,44.6,41.1,29.84,SW,229,2.0,6.0,88,-99.99,,,0.03,1-wire,2013-03-31 02:19:00,
2013-03-30 21:24:00,44.8,41.1,29.84,SW,234,2.0,6.0,87,-99.99,,,0.03,1-wire,2013-03-31 02:24:00,
2013-03-30 21:29:00,44.9,41.3,29.84,SW,234,2.0,3.0,87,-99.99,,,0.03,1-wire,2013-03-31 02:29:00,
2013-03-30 21:35:00,44.8,41.1,29.84,SW,234,4.0,8.0,87,-99.99,,,0.03,1-wire,2013-03-31 02:35:00,
2013-03-30 21:40:00,45.0,40.9,29.84,WSW,242,3.0,6.0,86,-99.99,,,0.03,1-wire,2013-03-31 02:40:00,
2013-03-30 21:47:00,45.1,40.5,29.84,WSW,242,4.0,9.0,84,-99.99,,,0.03,1-wire,2013-03-31 02:47:00,
2013-03-30 21:52:00,45.1,40.7,29.84,WSW,239,2.0,3.0,84,-99.99,,,0.03,1-wire,2013-03-31 02:52:00,
2013-03-30 21:58:00,45.0,40.8,29.84,WSW,239,3.0,6.0,85,-99.99,,,0.03,1-wire,2013-03-31 02:58:00,
2013-03-30 22:03:00,45.0,40.8,29.84,WSW,239,2.0,6.0,85,-99.99,,,0.03,1-wire,2013-03-31 03:03:00,
2013-03-30 22:08:00,44.8,40.9,29.83,SW,234,3.0,6.0,86,-99.99,,,0.03,1-wire,2013-03-31 03:08:00,
2013-03-30 22:13:00,44.8,40.9,29.83,SW,234,3.0,6.0,86,-99.99,,,0.03,1-wire,2013-03-31 03:13:00,
2013-03-30 22:18:00,44.8,41.1,29.84,SW,234,3.0,6.0,87,-99.99,,,0.03,1-wire,2013-03-31 03:18:00,
2013-03-30 22:23:00,44.8,41.1,29.83,WSW,247,2.0,6.0,87,-99.99,,,0.03,1-wire,2013-03-31 03:23:00,
2013-03-30 22:28:00,44.7,41.1,29.84,WSW,247,4.0,6.0,87,-99.99,,,0.03,1-wire,2013-03-31 03:28:00,
2013-03-30 22:33:00,44.5,40.9,29.84,WSW,247,3.0,6.0,87,-99.99,,,0.03,1-wire,2013-03-31 03:33:00,
2013-03-30 22:38:00,44.7,41.2,29.84,WSW,249,3.0,6.0,88,-99.99,,,0.03,1-wire,2013-03-31 03:38:00,
2013-03-30 22:44:00,44.5,41.1,29.83,WSW,249,2.0,6.0,88,-99.99,,,0.03,1-wire,2013-03-31 03:44:00,
2013-03-30 22:49:00,44.3,41.1,29.83,WSW,249,2.0,3.0,88,-99.99,,,0.03,1-wire,2013-03-31 03:49:00,
2013-03-30 22:54:00,44.5,41.2,29.82,WSW,251,1.0,3.0,88,-99.99,,,0.03,1-wire,2013-03-31 03:54:00,
2013-03-30 22:59:00,44.2,41.0,29.83,WSW,251,0.0,3.0,88,-99.99,,,0.03,1-wire,2013-03-31 03:59:00,
2013-03-30 23:00:00,44.2,40.9,29.83,WSW,251,0.0,3.0,88,-99.99,,,0.03,1-wire,2013-03-31 04:00:00,
2013-03-30 23:02:00,44.3,41.1,29.83,WSW,251,2.0,6.0,89,-99.99,,,0.03,1-wire,2013-03-31 04:02:00,
2013-03-30 23:05:00,44.2,41.1,29.83,WSW,251,2.0,3.0,89,-99.99,,,0.03,1-wire,2013-03-31 04:05:00,
2013-03-30 23:10:00,44.0,41.0,29.83,WSW,241,2.0,6.0,89,-99.99,,,0.03,1-wire,2013-03-31 04:10:00,
2013-03-30 23:15:00,44.3,41.3,29.82,WSW,241,0.0,3.0,89,-99.99,,,0.03,1-wire,2013-03-31 04:15:00,
2013-03-30 23:20:00,44.3,41.3,29.82,WSW,241,1.0,3.0,89,-99.99,,,0.03,1-wire,2013-03-31 04:20:00,
2013-03-30 23:25:00,44.2,41.4,29.82,WSW,242,1.0,3.0,90,-99.99,,,0.03,1-wire,2013-03-31 04:25:00,
2013-03-30 23:29:00,44.1,41.3,29.82,WSW,242,2.0,6.0,90,-99.99,,,0.03,1-wire,2013-03-31 04:29:00,
2013-03-30 23:34:00,44.1,41.4,29.82,WSW,242,2.0,3.0,90,-99.99,,,0.03,1-wire,2013-03-31 04:34:00,
2013-03-30 23:39:00,44.2,41.5,29.82,WSW,249,0.0,3.0,90,-99.99,,,0.03,1-wire,2013-03-31 04:39:00,
2013-03-30 23:44:00,44.1,41.5,29.82,WSW,249,2.0,3.0,90,-99.99,,,0.03,1-wire,2013-03-31 04:44:00,
2013-03-30 23:49:00,44.1,41.4,29.82,WSW,249,1.0,3.0,90,-99.99,,,0.03,1-wire,2013-03-31 04:49:00,
2013-03-30 23:55:00,44.0,41.3,29.82,WSW,246,2.0,6.0,90,-99.99,,,0.03,1-wire,2013-03-31 04:55:00,